Year,Month,Day,Hour,Minute,Value (Times are PST for temperature in C)
2016,08,20,00,00,18.20
2016,08,20,00,01,18.20
2016,08,20,00,02,18.20
2016,08,20,00,03,18.20
2016,08,20,00,04,18.20
2016,08,20,00,05,18.30
2016,08,20,00,06,18.30
2016,08,20,00,07,18.30
2016,08,20,00,08,18.30
2016,08,20,00,09,18.30
2016,08,20,00,10,18.30
2016,08,20,00,11,18.30
2016,08,20,00,12,18.30
2016,08,20,00,13,18.20
2016,08,20,00,14,18.20
2016,08,20,00,15,18.20
2016,08,20,00,16,18.10
2016,08,20,00,17,18.00
2016,08,20,00,18,18.00
2016,08,20,00,19,17.90
2016,08,20,00,20,17.90
2016,08,20,00,21,17.90
2016,08,20,00,22,17.90
2016,08,20,00,23,17.90
2016,08,20,00,24,17.90
2016,08,20,00,25,17.90
2016,08,20,00,26,17.90
2016,08,20,00,27,17.90
2016,08,20,00,28,17.90
2016,08,20,00,29,17.90
2016,08,20,00,30,17.90
2016,08,20,00,31,17.90
2016,08,20,00,32,17.90
2016,08,20,00,33,17.90
2016,08,20,00,34,17.90
2016,08,20,00,35,17.80
2016,08,20,00,36,17.80
2016,08,20,00,37,17.70
2016,08,20,00,38,17.70
2016,08,20,00,39,17.60
2016,08,20,00,40,17.60
2016,08,20,00,41,17.60
2016,08,20,00,42,17.50
2016,08,20,00,43,17.50
2016,08,20,00,44,17.40
2016,08,20,00,45,17.40
2016,08,20,00,46,17.40
2016,08,20,00,47,17.40
2016,08,20,00,48,17.30
2016,08,20,00,49,17.30
2016,08,20,00,50,17.30
2016,08,20,00,51,17.30
2016,08,20,00,52,17.30
2016,08,20,00,53,17.30
2016,08,20,00,54,17.30
2016,08,20,00,55,17.20
2016,08,20,00,56,17.20
2016,08,20,00,57,17.20
2016,08,20,00,58,17.20
2016,08,20,00,59,17.20
2016,08,20,01,00,17.20
2016,08,20,01,01,17.20
2016,08,20,01,02,17.20
2016,08,20,01,03,17.20
2016,08,20,01,04,17.20
2016,08,20,01,05,17.20
2016,08,20,01,06,17.20
2016,08,20,01,07,17.20
2016,08,20,01,08,17.10
2016,08,20,01,09,17.10
2016,08,20,01,10,17.10
2016,08,20,01,11,17.10
2016,08,20,01,12,17.10
2016,08,20,01,13,17.00
2016,08,20,01,14,17.00
2016,08,20,01,15,17.00
2016,08,20,01,16,16.90
2016,08,20,01,17,16.90
2016,08,20,01,18,16.90
2016,08,20,01,19,16.90
2016,08,20,01,20,16.80
2016,08,20,01,21,16.80
2016,08,20,01,22,16.80
2016,08,20,01,23,16.70
2016,08,20,01,24,16.70
2016,08,20,01,25,16.70
2016,08,20,01,26,16.60
2016,08,20,01,27,16.60
2016,08,20,01,28,16.60
2016,08,20,01,29,16.50
2016,08,20,01,30,16.50
2016,08,20,01,31,16.40
2016,08,20,01,32,16.40
2016,08,20,01,33,16.30
2016,08,20,01,34,16.30
2016,08,20,01,35,16.30
2016,08,20,01,36,16.30
2016,08,20,01,37,16.30
2016,08,20,01,38,16.30
2016,08,20,01,39,16.30
2016,08,20,01,40,16.30
2016,08,20,01,41,16.30
2016,08,20,01,42,16.30
2016,08,20,01,43,16.20
2016,08,20,01,44,16.20
2016,08,20,01,45,16.20
2016,08,20,01,46,16.20
2016,08,20,01,47,16.20
2016,08,20,01,48,16.20
2016,08,20,01,49,16.20
2016,08,20,01,50,16.10
2016,08,20,01,51,16.10
2016,08,20,01,52,16.10
2016,08,20,01,53,16.10
2016,08,20,01,54,16.10
2016,08,20,01,55,16.10
2016,08,20,01,56,16.10
2016,08,20,01,57,16.10
2016,08,20,01,58,16.10
2016,08,20,01,59,16.10
2016,08,20,02,00,16.00
2016,08,20,02,01,16.00
2016,08,20,02,02,16.00
2016,08,20,02,03,16.00
2016,08,20,02,04,15.90
2016,08,20,02,05,15.90
2016,08,20,02,06,15.90
2016,08,20,02,07,15.90
2016,08,20,02,08,15.80
2016,08,20,02,09,15.80
2016,08,20,02,10,15.80
2016,08,20,02,11,15.70
2016,08,20,02,12,15.70
2016,08,20,02,13,15.70
2016,08,20,02,14,15.60
2016,08,20,02,15,15.60
2016,08,20,02,16,15.60
2016,08,20,02,17,15.60
2016,08,20,02,18,15.60
2016,08,20,02,19,15.60
2016,08,20,02,20,15.60
2016,08,20,02,21,15.50
2016,08,20,02,22,15.50
2016,08,20,02,23,15.50
2016,08,20,02,24,15.40
2016,08,20,02,25,15.40
2016,08,20,02,26,15.40
2016,08,20,02,27,15.40
2016,08,20,02,28,15.40
2016,08,20,02,29,15.40
2016,08,20,02,30,15.40
2016,08,20,02,31,15.40
2016,08,20,02,32,15.40
2016,08,20,02,33,15.50
2016,08,20,02,34,15.50
2016,08,20,02,35,15.60
2016,08,20,02,36,15.60
2016,08,20,02,37,15.60
2016,08,20,02,38,15.60
2016,08,20,02,39,15.60
2016,08,20,02,40,15.50
2016,08,20,02,41,15.50
2016,08,20,02,42,15.50
2016,08,20,02,43,15.40
2016,08,20,02,44,15.40
2016,08,20,02,45,15.30
2016,08,20,02,46,15.30
2016,08,20,02,47,15.30
2016,08,20,02,48,15.30
2016,08,20,02,49,15.30
2016,08,20,02,50,15.30
2016,08,20,02,51,15.30
2016,08,20,02,52,15.30
2016,08,20,02,53,15.30
2016,08,20,02,54,15.30
2016,08,20,02,55,15.30
2016,08,20,02,56,15.30
2016,08,20,02,57,15.30
2016,08,20,02,58,15.20
2016,08,20,02,59,15.20
2016,08,20,03,00,15.20
2016,08,20,03,01,15.20
2016,08,20,03,02,15.20
2016,08,20,03,03,15.20
2016,08,20,03,04,15.20
2016,08,20,03,05,15.20
2016,08,20,03,06,15.20
2016,08,20,03,07,15.20
2016,08,20,03,08,15.20
2016,08,20,03,09,15.20
2016,08,20,03,10,15.20
2016,08,20,03,11,15.20
2016,08,20,03,12,15.20
2016,08,20,03,13,15.20
2016,08,20,03,14,15.20
2016,08,20,03,15,15.20
2016,08,20,03,16,15.20
2016,08,20,03,17,15.20
2016,08,20,03,18,15.20
2016,08,20,03,19,15.20
2016,08,20,03,20,15.20
2016,08,20,03,21,15.20
2016,08,20,03,22,15.20
2016,08,20,03,23,15.20
2016,08,20,03,24,15.20
2016,08,20,03,25,15.20
2016,08,20,03,26,15.20
2016,08,20,03,27,15.20
2016,08,20,03,28,15.20
2016,08,20,03,29,15.20
2016,08,20,03,30,15.20
2016,08,20,03,31,15.20
2016,08,20,03,32,15.30
2016,08,20,03,33,15.30
2016,08,20,03,34,15.20
2016,08,20,03,35,15.20
2016,08,20,03,36,15.20
2016,08,20,03,37,15.20
2016,08,20,03,38,15.20
2016,08,20,03,39,15.20
2016,08,20,03,40,15.20
2016,08,20,03,41,15.10
2016,08,20,03,42,15.10
2016,08,20,03,43,15.00
2016,08,20,03,44,14.90
2016,08,20,03,45,14.90
2016,08,20,03,46,14.90
2016,08,20,03,47,14.90
2016,08,20,03,48,14.80
2016,08,20,03,49,14.80
2016,08,20,03,50,14.80
2016,08,20,03,51,14.80
2016,08,20,03,52,14.80
2016,08,20,03,53,14.70
2016,08,20,03,54,14.70
2016,08,20,03,55,14.70
2016,08,20,03,56,14.70
2016,08,20,03,57,14.70
2016,08,20,03,58,14.60
2016,08,20,03,59,14.60
2016,08,20,04,00,14.60
2016,08,20,04,01,14.60
2016,08,20,04,02,14.60
2016,08,20,04,03,14.60
2016,08,20,04,04,14.60
2016,08,20,04,05,14.60
2016,08,20,04,06,14.60
2016,08,20,04,07,14.60
2016,08,20,04,08,14.50
2016,08,20,04,09,14.50
2016,08,20,04,10,14.50
2016,08,20,04,11,14.50
2016,08,20,04,12,14.50
2016,08,20,04,13,14.50
2016,08,20,04,14,14.50
2016,08,20,04,15,14.40
2016,08,20,04,16,14.40
2016,08,20,04,17,14.40
2016,08,20,04,18,14.40
2016,08,20,04,19,14.40
2016,08,20,04,20,14.40
2016,08,20,04,21,14.40
2016,08,20,04,22,14.40
2016,08,20,04,23,14.40
2016,08,20,04,24,14.40
2016,08,20,04,25,14.40
2016,08,20,04,26,14.40
2016,08,20,04,27,14.30
2016,08,20,04,28,14.30
2016,08,20,04,29,14.40
2016,08,20,04,30,14.30
2016,08,20,04,31,14.40
2016,08,20,04,32,14.40
2016,08,20,04,33,14.40
2016,08,20,04,34,14.40
2016,08,20,04,35,14.40
2016,08,20,04,36,14.40
2016,08,20,04,37,14.30
2016,08,20,04,38,14.30
2016,08,20,04,39,14.30
2016,08,20,04,40,14.30
2016,08,20,04,41,14.30
2016,08,20,04,42,14.30
2016,08,20,04,43,14.30
2016,08,20,04,44,14.20
2016,08,20,04,45,14.20
2016,08,20,04,46,14.20
2016,08,20,04,47,14.20
2016,08,20,04,48,14.20
2016,08,20,04,49,14.10
2016,08,20,04,50,14.10
2016,08,20,04,51,14.10
2016,08,20,04,52,14.10
2016,08,20,04,53,14.10
2016,08,20,04,54,14.10
2016,08,20,04,55,14.10
2016,08,20,04,56,14.10
2016,08,20,04,57,14.10
2016,08,20,04,58,14.10
2016,08,20,04,59,14.10
2016,08,20,05,00,14.00
2016,08,20,05,01,14.00
2016,08,20,05,02,13.90
2016,08,20,05,03,13.90
2016,08,20,05,04,13.90
2016,08,20,05,05,13.90
2016,08,20,05,06,13.80
2016,08,20,05,07,13.80
2016,08,20,05,08,13.80
2016,08,20,05,09,13.80
2016,08,20,05,10,13.70
2016,08,20,05,11,13.70
2016,08,20,05,12,13.70
2016,08,20,05,13,13.70
2016,08,20,05,14,13.70
2016,08,20,05,15,13.70
2016,08,20,05,16,13.70
2016,08,20,05,17,13.70
2016,08,20,05,18,13.60
2016,08,20,05,19,13.60
2016,08,20,05,20,13.60
2016,08,20,05,21,13.60
2016,08,20,05,22,13.60
2016,08,20,05,23,13.60
2016,08,20,05,24,13.60
2016,08,20,05,25,13.60
2016,08,20,05,26,13.60
2016,08,20,05,27,13.60
2016,08,20,05,28,13.50
2016,08,20,05,29,13.50
2016,08,20,05,30,13.50
2016,08,20,05,31,13.50
2016,08,20,05,32,13.50
2016,08,20,05,33,13.50
2016,08,20,05,34,13.50
2016,08,20,05,35,13.50
2016,08,20,05,36,13.50
2016,08,20,05,37,13.50
2016,08,20,05,38,13.50
2016,08,20,05,39,13.50
2016,08,20,05,40,13.50
2016,08,20,05,41,13.50
2016,08,20,05,42,13.40
2016,08,20,05,43,13.40
2016,08,20,05,44,13.40
2016,08,20,05,45,13.40
2016,08,20,05,46,13.40
2016,08,20,05,47,13.40
2016,08,20,05,48,13.40
2016,08,20,05,49,13.40
2016,08,20,05,50,13.40
2016,08,20,05,51,13.40
2016,08,20,05,52,13.40
2016,08,20,05,53,13.30
2016,08,20,05,54,13.30
2016,08,20,05,55,13.30
2016,08,20,05,56,13.30
2016,08,20,05,57,13.30
2016,08,20,05,58,13.30
2016,08,20,05,59,13.20
2016,08,20,06,00,13.20
2016,08,20,06,01,13.20
2016,08,20,06,02,13.20
2016,08,20,06,03,13.20
2016,08,20,06,04,13.20
2016,08,20,06,05,13.20
2016,08,20,06,06,13.30
2016,08,20,06,07,13.20
2016,08,20,06,08,13.20
2016,08,20,06,09,13.20
2016,08,20,06,10,13.20
2016,08,20,06,11,13.20
2016,08,20,06,12,13.20
2016,08,20,06,13,13.20
2016,08,20,06,14,13.20
2016,08,20,06,15,13.10
2016,08,20,06,16,13.10
2016,08,20,06,17,13.10
2016,08,20,06,18,13.10
2016,08,20,06,19,13.10
2016,08,20,06,20,13.10
2016,08,20,06,21,13.10
2016,08,20,06,22,13.00
2016,08,20,06,23,13.00
2016,08,20,06,24,13.00
2016,08,20,06,25,13.00
2016,08,20,06,26,13.00
2016,08,20,06,27,13.00
2016,08,20,06,28,13.00
2016,08,20,06,29,13.00
2016,08,20,06,30,12.90
2016,08,20,06,31,12.90
2016,08,20,06,32,12.90
2016,08,20,06,33,12.90
2016,08,20,06,34,12.90
2016,08,20,06,35,12.90
2016,08,20,06,36,12.90
2016,08,20,06,37,12.90
2016,08,20,06,38,12.90
2016,08,20,06,39,12.90
2016,08,20,06,40,12.90
2016,08,20,06,41,12.90
2016,08,20,06,42,12.90
2016,08,20,06,43,12.90
2016,08,20,06,44,12.90
2016,08,20,06,45,12.90
2016,08,20,06,46,12.90
2016,08,20,06,47,13.00
2016,08,20,06,48,13.00
2016,08,20,06,49,13.00
2016,08,20,06,50,13.00
2016,08,20,06,51,13.10
2016,08,20,06,52,13.10
2016,08,20,06,53,13.20
2016,08,20,06,54,13.20
2016,08,20,06,55,13.30
2016,08,20,06,56,13.40
2016,08,20,06,57,13.50
2016,08,20,06,58,13.60
2016,08,20,06,59,13.70
2016,08,20,07,00,13.70
2016,08,20,07,01,13.80
2016,08,20,07,02,13.90
2016,08,20,07,03,14.00
2016,08,20,07,04,14.00
2016,08,20,07,05,14.10
2016,08,20,07,06,14.10
2016,08,20,07,07,14.20
2016,08,20,07,08,14.30
2016,08,20,07,09,14.30
2016,08,20,07,10,14.30
2016,08,20,07,11,14.30
2016,08,20,07,12,14.30
2016,08,20,07,13,14.30
2016,08,20,07,14,14.30
2016,08,20,07,15,14.30
2016,08,20,07,16,14.30
2016,08,20,07,17,14.30
2016,08,20,07,18,14.30
2016,08,20,07,19,14.40
2016,08,20,07,20,14.40
2016,08,20,07,21,14.40
2016,08,20,07,22,14.40
2016,08,20,07,23,14.50
2016,08,20,07,24,14.60
2016,08,20,07,25,14.60
2016,08,20,07,26,14.70
2016,08,20,07,27,14.70
2016,08,20,07,28,14.70
2016,08,20,07,29,14.80
2016,08,20,07,30,14.80
2016,08,20,07,31,14.90
2016,08,20,07,32,14.90
2016,08,20,07,33,15.00
2016,08,20,07,34,15.10
2016,08,20,07,35,15.10
2016,08,20,07,36,15.20
2016,08,20,07,37,15.30
2016,08,20,07,38,15.40
2016,08,20,07,39,15.50
2016,08,20,07,40,15.60
2016,08,20,07,41,15.60
2016,08,20,07,42,15.70
2016,08,20,07,43,15.80
2016,08,20,07,44,15.90
2016,08,20,07,45,15.90
2016,08,20,07,46,16.00
2016,08,20,07,47,16.10
2016,08,20,07,48,16.10
2016,08,20,07,49,16.20
2016,08,20,07,50,16.30
2016,08,20,07,51,16.40
2016,08,20,07,52,16.40
2016,08,20,07,53,16.50
2016,08,20,07,54,16.70
2016,08,20,07,55,16.70
2016,08,20,07,56,16.80
2016,08,20,07,57,16.90
2016,08,20,07,58,17.10
2016,08,20,07,59,17.20
2016,08,20,08,00,17.30
2016,08,20,08,01,17.40
2016,08,20,08,02,17.50
2016,08,20,08,03,17.60
2016,08,20,08,04,17.60
2016,08,20,08,05,17.70
2016,08,20,08,06,17.70
2016,08,20,08,07,17.80
2016,08,20,08,08,17.90
2016,08,20,08,09,17.90
2016,08,20,08,10,18.00
2016,08,20,08,11,18.10
2016,08,20,08,12,18.20
2016,08,20,08,13,18.30
2016,08,20,08,14,18.50
2016,08,20,08,15,18.60
2016,08,20,08,16,18.70
2016,08,20,08,17,18.80
2016,08,20,08,18,18.90
2016,08,20,08,19,19.00
2016,08,20,08,20,19.10
2016,08,20,08,21,19.20
2016,08,20,08,22,19.30
2016,08,20,08,23,19.30
2016,08,20,08,24,19.40
2016,08,20,08,25,19.40
2016,08,20,08,26,19.50
2016,08,20,08,27,19.60
2016,08,20,08,28,19.60
2016,08,20,08,29,19.70
2016,08,20,08,30,19.80
2016,08,20,08,31,19.90
2016,08,20,08,32,20.00
2016,08,20,08,33,20.10
2016,08,20,08,34,20.10
2016,08,20,08,35,20.20
2016,08,20,08,36,20.30
2016,08,20,08,37,20.40
2016,08,20,08,38,20.50
2016,08,20,08,39,20.70
2016,08,20,08,40,20.90
2016,08,20,08,41,21.10
2016,08,20,08,42,21.30
2016,08,20,08,43,21.50
2016,08,20,08,44,21.70
2016,08,20,08,45,21.80
2016,08,20,08,46,21.90
2016,08,20,08,47,22.00
2016,08,20,08,48,22.00
2016,08,20,08,49,22.00
2016,08,20,08,50,22.10
2016,08,20,08,51,22.00
2016,08,20,08,52,22.10
2016,08,20,08,53,22.10
2016,08,20,08,54,22.10
2016,08,20,08,55,22.20
2016,08,20,08,56,22.30
2016,08,20,08,57,22.40
2016,08,20,08,58,22.60
2016,08,20,08,59,22.70
2016,08,20,09,00,22.80
2016,08,20,09,01,23.00
2016,08,20,09,02,23.10
2016,08,20,09,03,23.20
2016,08,20,09,04,23.30
2016,08,20,09,05,23.40
2016,08,20,09,06,23.50
2016,08,20,09,07,23.60
2016,08,20,09,08,23.70
2016,08,20,09,09,23.70
2016,08,20,09,10,23.80
2016,08,20,09,11,23.80
2016,08,20,09,12,23.90
2016,08,20,09,13,24.00
2016,08,20,09,14,24.10
2016,08,20,09,15,24.10
2016,08,20,09,16,24.10
2016,08,20,09,17,24.10
2016,08,20,09,18,24.10
2016,08,20,09,19,24.10
2016,08,20,09,20,24.10
2016,08,20,09,21,24.10
2016,08,20,09,22,24.10
2016,08,20,09,23,24.10
2016,08,20,09,24,24.10
2016,08,20,09,25,24.10
2016,08,20,09,26,24.20
2016,08,20,09,27,24.20
2016,08,20,09,28,24.20
2016,08,20,09,29,24.30
2016,08,20,09,30,24.30
2016,08,20,09,31,24.30
2016,08,20,09,32,24.40
2016,08,20,09,33,24.40
2016,08,20,09,34,24.50
2016,08,20,09,35,24.50
2016,08,20,09,36,24.50
2016,08,20,09,37,24.60
2016,08,20,09,38,24.70
2016,08,20,09,39,24.80
2016,08,20,09,40,24.80
2016,08,20,09,41,24.90
2016,08,20,09,42,24.90
2016,08,20,09,43,25.00
2016,08,20,09,44,25.10
2016,08,20,09,45,25.10
2016,08,20,09,46,25.10
2016,08,20,09,47,25.10
2016,08,20,09,48,25.10
2016,08,20,09,49,25.20
2016,08,20,09,50,25.20
2016,08,20,09,51,25.20
2016,08,20,09,52,25.20
2016,08,20,09,53,25.20
2016,08,20,09,54,25.20
2016,08,20,09,55,25.10
2016,08,20,09,56,25.10
2016,08,20,09,57,25.10
2016,08,20,09,58,25.20
2016,08,20,09,59,25.20
2016,08,20,10,00,25.20
2016,08,20,10,01,25.30
2016,08,20,10,02,25.30
2016,08,20,10,03,25.30
2016,08,20,10,04,25.30
2016,08,20,10,05,25.40
2016,08,20,10,06,25.50
2016,08,20,10,07,25.60
2016,08,20,10,08,25.70
2016,08,20,10,09,25.70
2016,08,20,10,10,25.70
2016,08,20,10,11,25.70
2016,08,20,10,12,25.70
2016,08,20,10,13,25.70
2016,08,20,10,14,25.70
2016,08,20,10,15,25.80
2016,08,20,10,16,25.80
2016,08,20,10,17,25.90
2016,08,20,10,18,25.90
2016,08,20,10,19,25.90
2016,08,20,10,20,25.90
2016,08,20,10,21,25.90
2016,08,20,10,22,25.90
2016,08,20,10,23,25.90
2016,08,20,10,24,25.90
2016,08,20,10,25,25.90
2016,08,20,10,26,25.80
2016,08,20,10,27,25.80
2016,08,20,10,28,25.90
2016,08,20,10,29,26.00
2016,08,20,10,30,26.10
2016,08,20,10,31,26.20
2016,08,20,10,32,26.30
2016,08,20,10,33,26.30
2016,08,20,10,34,26.30
2016,08,20,10,35,26.30
2016,08,20,10,36,26.30
2016,08,20,10,37,26.30
2016,08,20,10,38,26.30
2016,08,20,10,39,26.30
2016,08,20,10,40,26.40
2016,08,20,10,41,26.40
2016,08,20,10,42,26.30
2016,08,20,10,43,26.30
2016,08,20,10,44,26.30
2016,08,20,10,45,26.30
2016,08,20,10,46,26.30
2016,08,20,10,47,26.30
2016,08,20,10,48,26.30
2016,08,20,10,49,26.30
2016,08,20,10,50,26.20
2016,08,20,10,51,26.20
2016,08,20,10,52,26.20
2016,08,20,10,53,26.20
2016,08,20,10,54,26.20
2016,08,20,10,55,26.30
2016,08,20,10,56,26.40
2016,08,20,10,57,26.50
2016,08,20,10,58,26.60
2016,08,20,10,59,26.70
2016,08,20,11,00,26.80
2016,08,20,11,01,26.90
2016,08,20,11,02,26.70
2016,08,20,11,03,26.60
2016,08,20,11,04,26.50
2016,08,20,11,05,26.40
2016,08,20,11,06,26.50
2016,08,20,11,07,26.50
2016,08,20,11,08,26.40
2016,08,20,11,09,26.40
2016,08,20,11,10,26.30
2016,08,20,11,11,26.30
2016,08,20,11,12,26.30
2016,08,20,11,13,26.30
2016,08,20,11,14,26.30
2016,08,20,11,15,26.30
2016,08,20,11,16,26.20
2016,08,20,11,17,26.20
2016,08,20,11,18,26.20
2016,08,20,11,19,26.20
2016,08,20,11,20,26.30
2016,08,20,11,21,26.30
2016,08,20,11,22,26.40
2016,08,20,11,23,26.40
2016,08,20,11,24,26.40
2016,08,20,11,25,26.50
2016,08,20,11,26,26.50
2016,08,20,11,27,26.60
2016,08,20,11,28,26.70
2016,08,20,11,29,26.70
2016,08,20,11,30,26.80
2016,08,20,11,31,26.80
2016,08,20,11,32,26.90
2016,08,20,11,33,27.00
2016,08,20,11,34,27.10
2016,08,20,11,35,27.20
2016,08,20,11,36,27.30
2016,08,20,11,37,27.40
2016,08,20,11,38,27.50
2016,08,20,11,39,27.60
2016,08,20,11,40,27.60
2016,08,20,11,41,27.70
2016,08,20,11,42,27.80
2016,08,20,11,43,27.80
2016,08,20,11,44,27.90
2016,08,20,11,45,28.00
2016,08,20,11,46,28.00
2016,08,20,11,47,28.10
2016,08,20,11,48,28.10
2016,08,20,11,49,28.20
2016,08,20,11,50,28.20
2016,08,20,11,51,28.20
2016,08,20,11,52,28.20
2016,08,20,11,53,28.30
2016,08,20,11,54,28.30
2016,08,20,11,55,28.40
2016,08,20,11,56,28.30
2016,08,20,11,57,28.30
2016,08,20,11,58,28.20
2016,08,20,11,59,28.10
2016,08,20,12,00,28.10
2016,08,20,12,01,28.20
2016,08,20,12,02,28.20
2016,08,20,12,03,28.20
2016,08,20,12,04,28.20
2016,08,20,12,05,28.20
2016,08,20,12,06,28.20
2016,08,20,12,07,28.30
2016,08,20,12,08,28.30
2016,08,20,12,09,28.20
2016,08,20,12,10,28.20
2016,08,20,12,11,28.30
2016,08,20,12,12,28.30
2016,08,20,12,13,28.20
2016,08,20,12,14,28.30
2016,08,20,12,15,28.30
2016,08,20,12,16,28.40
2016,08,20,12,17,28.50
2016,08,20,12,18,28.60
2016,08,20,12,19,28.70
2016,08,20,12,20,28.70
2016,08,20,12,21,28.70
2016,08,20,12,22,28.70
2016,08,20,12,23,28.70
2016,08,20,12,24,28.60
2016,08,20,12,25,28.60
2016,08,20,12,26,28.50
2016,08,20,12,27,28.50
2016,08,20,12,28,28.60
2016,08,20,12,29,28.50
2016,08,20,12,30,28.50
2016,08,20,12,31,28.50
2016,08,20,12,32,28.50
2016,08,20,12,33,28.40
2016,08,20,12,34,28.50
2016,08,20,12,35,28.60
2016,08,20,12,36,28.60
2016,08,20,12,37,28.60
2016,08,20,12,38,28.70
2016,08,20,12,39,28.70
2016,08,20,12,40,28.80
2016,08,20,12,41,28.80
2016,08,20,12,42,28.80
2016,08,20,12,43,28.70
2016,08,20,12,44,28.80
2016,08,20,12,45,28.80
2016,08,20,12,46,28.80
2016,08,20,12,47,28.70
2016,08,20,12,48,28.60
2016,08,20,12,49,28.50
2016,08,20,12,50,28.50
2016,08,20,12,51,28.50
2016,08,20,12,52,28.60
2016,08,20,12,53,28.60
2016,08,20,12,54,28.60
2016,08,20,12,55,28.70
2016,08,20,12,56,28.70
2016,08,20,12,57,28.70
2016,08,20,12,58,28.70
2016,08,20,12,59,28.80
2016,08,20,13,00,28.90
2016,08,20,13,01,28.90
2016,08,20,13,02,29.00
2016,08,20,13,03,29.10
2016,08,20,13,04,29.30
2016,08,20,13,05,29.40
2016,08,20,13,06,29.40
2016,08,20,13,07,29.40
2016,08,20,13,08,29.30
2016,08,20,13,09,29.30
2016,08,20,13,10,29.30
2016,08,20,13,11,29.40
2016,08,20,13,12,29.30
2016,08,20,13,13,29.30
2016,08,20,13,14,29.20
2016,08,20,13,15,29.20
2016,08,20,13,16,29.10
2016,08,20,13,17,29.10
2016,08,20,13,18,29.10
2016,08,20,13,19,29.00
2016,08,20,13,20,29.00
2016,08,20,13,21,29.00
2016,08,20,13,22,29.00
2016,08,20,13,23,29.00
2016,08,20,13,24,29.00
2016,08,20,13,25,29.00
2016,08,20,13,26,28.90
2016,08,20,13,27,28.80
2016,08,20,13,28,28.70
2016,08,20,13,29,28.60
2016,08,20,13,30,28.50
2016,08,20,13,31,28.40
2016,08,20,13,32,28.40
2016,08,20,13,33,28.40
2016,08,20,13,34,28.40
2016,08,20,13,35,28.40
2016,08,20,13,36,28.40
2016,08,20,13,37,28.40
2016,08,20,13,38,28.40
2016,08,20,13,39,28.40
2016,08,20,13,40,28.40
2016,08,20,13,41,28.30
2016,08,20,13,42,28.20
2016,08,20,13,43,28.20
2016,08,20,13,44,28.20
2016,08,20,13,45,28.20
2016,08,20,13,46,28.30
2016,08,20,13,47,28.30
2016,08,20,13,48,28.30
2016,08,20,13,49,28.30
2016,08,20,13,50,28.30
2016,08,20,13,51,28.40
2016,08,20,13,52,28.40
2016,08,20,13,53,28.40
2016,08,20,13,54,28.40
2016,08,20,13,55,28.40
2016,08,20,13,56,28.40
2016,08,20,13,57,28.50
2016,08,20,13,58,28.50
2016,08,20,13,59,28.50
2016,08,20,14,00,28.60
2016,08,20,14,01,28.60
2016,08,20,14,02,28.60
2016,08,20,14,03,28.70
2016,08,20,14,04,28.70
2016,08,20,14,05,28.70
2016,08,20,14,06,28.70
2016,08,20,14,07,28.80
2016,08,20,14,08,28.80
2016,08,20,14,09,28.80
2016,08,20,14,10,28.80
2016,08,20,14,11,28.90
2016,08,20,14,12,28.80
2016,08,20,14,13,28.70
2016,08,20,14,14,28.70
2016,08,20,14,15,28.70
2016,08,20,14,16,28.70
2016,08,20,14,17,28.70
2016,08,20,14,18,28.70
2016,08,20,14,19,28.80
2016,08,20,14,20,28.90
2016,08,20,14,21,29.00
2016,08,20,14,22,29.10
2016,08,20,14,23,29.30
2016,08,20,14,24,29.50
2016,08,20,14,25,29.60
2016,08,20,14,26,29.60
2016,08,20,14,27,29.60
2016,08,20,14,28,29.60
2016,08,20,14,29,29.50
2016,08,20,14,30,29.50
2016,08,20,14,31,29.50
2016,08,20,14,32,29.60
2016,08,20,14,33,29.60
2016,08,20,14,34,29.70
2016,08,20,14,35,29.70
2016,08,20,14,36,29.80
2016,08,20,14,37,29.80
2016,08,20,14,38,29.80
2016,08,20,14,39,29.70
2016,08,20,14,40,29.70
2016,08,20,14,41,29.70
2016,08,20,14,42,29.80
2016,08,20,14,43,29.90
2016,08,20,14,44,30.10
2016,08,20,14,45,30.20
2016,08,20,14,46,30.30
2016,08,20,14,47,30.30
2016,08,20,14,48,30.30
2016,08,20,14,49,30.20
2016,08,20,14,50,30.30
2016,08,20,14,51,30.30
2016,08,20,14,52,30.40
2016,08,20,14,53,30.40
2016,08,20,14,54,30.40
2016,08,20,14,55,30.50
2016,08,20,14,56,30.50
2016,08,20,14,57,30.60
2016,08,20,14,58,30.60
2016,08,20,14,59,30.70
2016,08,20,15,00,30.70
2016,08,20,15,01,30.80
2016,08,20,15,02,30.90
2016,08,20,15,03,31.00
2016,08,20,15,04,31.00
2016,08,20,15,05,31.10
2016,08,20,15,06,31.10
2016,08,20,15,07,31.10
2016,08,20,15,08,31.10
2016,08,20,15,09,31.10
2016,08,20,15,10,31.00
2016,08,20,15,11,31.00
2016,08,20,15,12,30.90
2016,08,20,15,13,30.80
2016,08,20,15,14,30.80
2016,08,20,15,15,30.70
2016,08,20,15,16,30.70
2016,08,20,15,17,30.60
2016,08,20,15,18,30.60
2016,08,20,15,19,30.50
2016,08,20,15,20,30.50
2016,08,20,15,21,30.50
2016,08,20,15,22,30.50
2016,08,20,15,23,30.50
2016,08,20,15,24,30.50
2016,08,20,15,25,30.60
2016,08,20,15,26,30.70
2016,08,20,15,27,30.80
2016,08,20,15,28,30.80
2016,08,20,15,29,30.70
2016,08,20,15,30,30.60
2016,08,20,15,31,30.60
2016,08,20,15,32,30.70
2016,08,20,15,33,30.70
2016,08,20,15,34,30.70
2016,08,20,15,35,30.70
2016,08,20,15,36,30.60
2016,08,20,15,37,30.60
2016,08,20,15,38,30.60
2016,08,20,15,39,30.50
2016,08,20,15,40,30.40
2016,08,20,15,41,30.40
2016,08,20,15,42,30.30
2016,08,20,15,43,30.40
2016,08,20,15,44,30.40
2016,08,20,15,45,30.50
2016,08,20,15,46,30.60
2016,08,20,15,47,30.60
2016,08,20,15,48,30.50
2016,08,20,15,49,30.40
2016,08,20,15,50,30.30
2016,08,20,15,51,30.20
2016,08,20,15,52,30.20
2016,08,20,15,53,30.20
2016,08,20,15,54,30.10
2016,08,20,15,55,30.10
2016,08,20,15,56,30.10
2016,08,20,15,57,30.10
2016,08,20,15,58,30.10
2016,08,20,15,59,30.20
2016,08,20,16,00,30.20
2016,08,20,16,01,30.30
2016,08,20,16,02,30.30
2016,08,20,16,03,30.30
2016,08,20,16,04,30.40
2016,08,20,16,05,30.50
2016,08,20,16,06,30.60
2016,08,20,16,07,30.70
2016,08,20,16,08,30.70
2016,08,20,16,09,30.70
2016,08,20,16,10,30.60
2016,08,20,16,11,30.60
2016,08,20,16,12,30.50
2016,08,20,16,13,30.50
2016,08,20,16,14,30.40
2016,08,20,16,15,30.40
2016,08,20,16,16,30.30
2016,08,20,16,17,30.20
2016,08,20,16,18,30.20
2016,08,20,16,19,30.20
2016,08,20,16,20,30.20
2016,08,20,16,21,30.20
2016,08,20,16,22,30.30
2016,08,20,16,23,30.30
2016,08,20,16,24,30.40
2016,08,20,16,25,30.40
2016,08,20,16,26,30.40
2016,08,20,16,27,30.50
2016,08,20,16,28,30.50
2016,08,20,16,29,30.60
2016,08,20,16,30,30.50
2016,08,20,16,31,30.50
2016,08,20,16,32,30.40
2016,08,20,16,33,30.40
2016,08,20,16,34,30.40
2016,08,20,16,35,30.40
2016,08,20,16,36,30.50
2016,08,20,16,37,30.60
2016,08,20,16,38,30.60
2016,08,20,16,39,30.50
2016,08,20,16,40,30.50
2016,08,20,16,41,30.50
2016,08,20,16,42,30.50
2016,08,20,16,43,30.60
2016,08,20,16,44,30.60
2016,08,20,16,45,30.60
2016,08,20,16,46,30.60
2016,08,20,16,47,30.60
2016,08,20,16,48,30.50
2016,08,20,16,49,30.50
2016,08,20,16,50,30.40
2016,08,20,16,51,30.30
2016,08,20,16,52,30.30
2016,08,20,16,53,30.30
2016,08,20,16,54,30.30
2016,08,20,16,55,30.30
2016,08,20,16,56,30.30
2016,08,20,16,57,30.20
2016,08,20,16,58,30.20
2016,08,20,16,59,30.20
2016,08,20,17,00,30.20
2016,08,20,17,01,30.20
2016,08,20,17,02,30.20
2016,08,20,17,03,30.10
2016,08,20,17,04,30.10
2016,08,20,17,05,30.10
2016,08,20,17,06,30.10
2016,08,20,17,07,30.00
2016,08,20,17,08,29.90
2016,08,20,17,09,29.70
2016,08,20,17,10,29.50
2016,08,20,17,11,29.40
2016,08,20,17,12,29.30
2016,08,20,17,13,29.30
2016,08,20,17,14,29.30
2016,08,20,17,15,29.30
2016,08,20,17,16,29.40
2016,08,20,17,17,29.50
2016,08,20,17,18,29.50
2016,08,20,17,19,29.60